Regional Weather Roundup
Issued by NWS Green Bay, WI

Home | Current Version | Previous Version | Text Only | Print | Product List | Glossary On
Versions: 1 2 3 4 5 6 7 8 9 10 11 12 13 14 15 16 17 18 19 20 21 22 23 24 25 26 27 28 29 30 31 32 33 34 35 36 37 38 39 40 41 42 43 44 45 46 47 48 49 50
000
ASUS43 KGRB 192310
RWRGRB

NORTH-CENTRAL AND NORTHEAST WISCONSIN REGIONAL WEATHER ROUNDUP
NATIONAL WEATHER SERVICE GREEN BAY WI
600 PM CDT SUN APR 19 2015

WIZ005-009-010>012-018-019-200000-
NORTH CENTRAL WISCONSIN

CITY           SKY/WX    TMP DP  RH WIND       PRES   REMARKS
IRONWOOD       CLOUDY    52  46  82 S6        29.53F
MANITOWISH WTR CLOUDY    56  40  55 S7        29.56F
ARBOR VITAE    CLOUDY    59  41  50 S5        29.56F
EAGLE RIVER    CLOUDY    57  32  37 SE8       29.57F
LAND O LAKES   CLOUDY    56  32  40 SE5       29.59F
RHINELANDER    CLOUDY    61  36  39 SE13      29.57F
PHILLIPS       CLOUDY    52  48  87 N3        29.54F
ANTIGO         CLOUDY    57  36  45 E13       29.58F
TOMAHAWK       CLOUDY    61  37  40 CALM      29.55F
MERRILL        CLOUDY    62  38  40 SE8       29.54F
$$

WIZ013-073-200000-
NORTHEAST WISCONSIN

CITY           SKY/WX    TMP DP  RH WIND       PRES   REMARKS
IRON MOUNTAIN  CLOUDY    55  28  35 E10       29.62F
MARINETTE      PTSUNNY   48  34  57 NE12      29.62F
OCONTO         PTSUNNY   56  32  40 NE6       29.60F
$$

WIZ017-030-035>037-045-200000-
CENTRAL WISCONSIN

CITY           SKY/WX    TMP DP  RH WIND       PRES   REMARKS
MEDFORD        CLOUDY    61  39  45 SE7       29.53F
WAUSAU         CLOUDY    64  37  36 E13       29.52F
MOSINEE        PTSUNNY   63  36  36 E8G17     29.55F
MARSHFIELD     CLOUDY    64  39  39 E8        29.52F
WISC RAPIDS    CLOUDY    67  35  30 E13       29.51F
STEVENS POINT  CLOUDY    63  36  36 E13G23    29.53F
WAUPACA        CLOUDY    68  33  26 E15       29.55F
SHAWANO        CLOUDY    62  32  32 E10       29.58F
CLINTONVILLE   CLOUDY    63  32  31 E10       29.57F
$$

WIZ038-039-048-051-200000-
FOX VALLEY

CITY           SKY/WX    TMP DP  RH WIND       PRES   REMARKS
NWS GREEN BAY  PTSUNNY   55  37  50 NE17      29.58F
APPLETON       MOSUNNY   64  28  25 E9        29.57F
OSHKOSH        CLOUDY    64  36  35 E9        29.54F
FOND DU LAC    CLOUDY    64  32  30 SE12G21   29.54F
$$

WIZ022-050-052-200000-
EAST CENTRAL WISCONSIN

CITY           SKY/WX    TMP DP  RH WIND       PRES   REMARKS
STURGEON BAY   PTSUNNY   50  36  57 NW5       29.62F
MANITOWOC      CLOUDY    54  32  43 NE8       29.59F
SHEBOYGAN      CLOUDY    51  34  52 E8        29.58F
$$

LMZ563-521-522-541>543-200000-
LAKESHORE

STATION/POSITION TIME  TEMP    WIND        PRES    VSBY  WAVE
                       AIR SEA DIR/SP/G                  HT/PER
                 (UTC) (F)     (DEG/KT/KT) (MB)    (MI)  (FT/S)
SHEBOYGAN LKSHOR 2300   42      20/ 11/ 12 1002.1F
KEWAUNEE LKSHORE 2300   46      30/ 14/ 18 1001.6F
NORTHPORT PIER   2300   44      60/ 14/ 18 1003.7S
CHAMBERS ISLAND  2300   39     350/ 11/ 14 1004.1F
MENOMINEE LKSHOR 2300   40      10/ 23/ 25 1003.9F
$$


USA.gov is the U.S. government's official web portal to all federal, state and local government web resources and services.